Regional Weather Roundup
Issued by NWS Newport/Morehead, NC

Current Version | Previous Version | Text Only | Print | Product List | Glossary On
Versions: 1 2 3 4 5 6 7 8 9 10 11 12 13 14 15 16 17 18 19 20 21 22 23 24 25 26 27 28 29 30 31 32 33 34 35 36 37 38 39 40 41 42 43 44 45 46 47 48 49 50
000
ASUS42 KMHX 181214
RWRMHX
WEATHER ROUNDUP FOR EASTERN NORTH CAROLINA
NATIONAL WEATHER SERVICE NEWPORT/MOREHEAD CITY NC
800 AM EDT FRI AUG 18 2017

NOTE: "FAIR" INDICATES FEW OR NO CLOUDS BELOW 12,000 FEET
WITH NO SIGNIFICANT WEATHER AND/OR OBSTRUCTIONS TO VISIBILITY

NCZ015>017-031-032-045>047-102-103-181300-
NORTH COAST

CITY           SKY/WX    TMP DP  RH WIND       PRES   REMARKS
EDENTON        CLOUDY    82  79  90 CALM      29.95S
ELIZABETH CITY MOSUNNY   82  80  94 S7        29.94S
KITTY HAWK     SUNNY     81  77  88 CALM      29.94S
MANTEO         SUNNY     82  78  89 SW10      29.96S

$$

NCZ045>047-081-094-103-104-181300-
CENTRAL COAST

CITY           SKY/WX    TMP DP  RH WIND       PRES   REMARKS
FRISCO         PTSUNNY   84  81  90 SW7       29.97R

$$

NCZ095-097-098-100-101-181300-
SOUTHERN COAST

CITY           SKY/WX    TMP DP  RH WIND       PRES   REMARKS
BEAUFORT       MOSUNNY   84  82  94 SW10      29.96R HX 100
CEDAR ISLAND   NOT AVBL
JACKSONVILLE   SUNNY     83  82  97 SW7       29.94S
PINEY ISLAND   SUNNY    N/A N/A N/A SW7       29.96R
WILMINGTON     SUNNY     83  81  94 SW8       29.95S


$$

NCZ011>013-027>030-043-044-078>080-089-090>093-098-181300-
COASTAL PLAIN

CITY           SKY/WX    TMP DP  RH WIND       PRES   REMARKS
AHOSKIE          N/A     77  77  99 S5        29.94R FOG
CLINTON        PTSUNNY   77  77 100 CALM      29.95S
ELIZABETHTOWN  NOT AVBL
GOLDSBORO      NOT AVBL
GREENVILLE     CLOUDY    81  79  94 SW7       29.96S FOG
HAVELOCK       SUNNY     83  80  91 SW6       29.96S
KENANSVILLE    CLOUDY    79  77  94 S3        29.95S FOG
KINSTON        CLOUDY    81  79  94 SW7       29.96R FOG
NEW BERN       SUNNY     82  81  96 S7        29.96S FOG
RICHLANDS      MOSUNNY   81  80  97 S6        29.96R
ROCKY MOUNT    CLOUDY    78  77  96 SW8       29.95R FOG
WASHINGTON     CLOUDY    80  78  95 S5        29.95S FOG
WHITEVILLE     NOT AVBL

$$

AMZ130-135-150-152-154-156-158-170-250-252-270-ANZ085-086-088-633-658-670-181300-
MARINE OBSERVATIONS

STATION/POSITION TIME  TEMP    WIND        PRES    WAVE   SWELL
                       AIR SEA DIR/SP/G            HT/PER HT/PER
                 (UTC) (F)     (DEG/KT/KT) (MB)    (FT/S) (FT/S)
CHESAPEAKE LIGHT NOT AVBL
64 E VA BEACH    1150   78 77  170/  8/ 10 1014.9    3/ 8   2/ 8
DUCK             1136   82 72  190/ 12/ 15 1013.7
2 E DUCK         1200      78                N/A     2/ 6
OREGON INLET     1136   83 83  180/ 10/ 13 1014.4
13E OREGON INLT  1148      80                N/A     2/ 8   2/ 8
HATTERAS CG      1136   82 84  180/  5/  8 1014.5
DIAMOND BUOY     1150   83 86  220/ 12/ 14 1014.8    2/ 8   2/ 8
CAPE LOOKOUT     1200   83     210/  8/  9 1014.3
BEAUFORT LAB     1136   83 81  220/  5/  8 1014.0
30 SE NEW RVR IN 1108   81 83  210/ 10/ 14 1014.4
30 SE NEW RVR IN 1143      83                N/A     3/ 4
27 SE WRIGHTSVLE 1108   84 83  210/ 10/ 16 1014.2
5 SE WRIGHTSVLE  1108   84 83  220/  8/ 14 1013.9
225 S CAPE HAT   1150   84 84  240/ 12/ 12 1016.5    3/ 7   2/ 7
41 SE CHARLESTON 1200   84 85  240/ 12/ 14 1014.6

$$



USA.gov is the U.S. government's official web portal to all federal, state and local government web resources and services.